sat.trackr.live / text

‹ back to catalog

STARLINK-3859

NORAD 52470 · 2022-049V

PAYLOAD ACTIVE UNKNOWN

§ Identity

Operator
Country
US
Launch date
2022-05-06
Launch site
AFETR
Launch vehicle
Mass (kg)
RCS (m²)

Purposes: comms

External: N2YO · Heavens-Above · Gunter

§ Orbital elements

Epoch: 2026-05-25T02:00:54.812736Z

Period
95.44 min
Inclination
53.2161°
Eccentricity
0.0001576
Mean motion
15.08834553 rev/d
Perigee alt
538.7 km
Apogee alt
540.9 km
Semi-major
6,917.9 km
B*
-5.7401e-5
RAAN
76.1697°
Arg perigee
86.8284°
Mean anomaly
273.2889°
Rev number
22,378

§ Raw data

STARLINK-38591 52470U 22049V   26145.08396774 -.00001201  00000+0 -57401-4 0  99932 52470  53.2161  76.1697 0001576  86.8284 273.2889 15.08834553223782

JSON: /api/v1/satellites/52470 · /tle

For live sub-satellite position, see the globe view (requires WebGL).

§ Visibility from observer

Set your observer location to see the next 7 days of passes ≥ 10°. The values pass through the URL so the page stays shareable.

No JS? Fill the form by hand. The geolocation button needs JavaScript.